Location: Zagreb
(45.8000°N, 16.0000°E)
Time: 15:28:23
(UTC+02:00)

Vanguard 1 - Pass Details

Date: 09 August 2022
Orbit: 649 x 3832 km, 34.2° (Epoch: 25 September)

Event Time Altitude Azimuth Distance (km) Brightness Sun altitude
Rises 05:20:24 0° 226° (SW) 5,981 - -5.2°
Exits shadow 05:21:31 - 225° (SW) 5,772 13.4 -5.0°
Reaches altitude 10° 05:23:58 10° 221° (SW) 5,336 13.2 -4.6°
Maximum altitude 05:40:19 48° 153° (SSE) 4,205 13.3 -2.1°
Drops below altitude 10° 06:01:52 10° 89° (E) 6,881 15.9 1.3°
Sets 06:07:15 0° 85° (E) 7,763 16.6 2.2°
